Location: Antoign�
(47.0844°N, 0.1131°W)
Time: 20:06:04
(UTC+00:00)

Cosmos 1844 Rocket - Pass Details

Date: 03 March 2021
Orbit: 826 x 843 km, 71.0° (Epoch: 14 April)

Event Time Altitude Azimuth Distance (km) Brightness Sun altitude
Rises 20:04:56 0° 326° (NNW) 3,374 6.6 -23.7°
Reaches altitude 10° 20:07:31 10° 319° (NW) 2,436 5.9 -24.1°
Maximum altitude 20:12:35 37° 254° (WSW) 1,269 4.0 -25.0°
Enters shadow 20:17:27 11° 189° (S) 2,364 4.9 -25.7°
